Boo Token
| Nome | Boo Token |
|---|---|
| Tipo | Creatura leggendaria pedina — criceto |
| Descrizione | Trampolino, rapidità |
| Gusto | Vai per gli occhi, Boo! |
| Artista | Zoltan Boros |
| Espansione | Battaglia per i gettoni di Baldur's Gate #9 |
| Carta da parati | |
| Immagine |
Di Boo Token
Boo Token, Creatura leggendaria pedina — criceto, progettato da Zoltan Boros rilasciato per la prima volta luglio 2021 in redazione Adventures in the Forgotten Realms Tokens ed è stato stampato esattamente in 2 forme diverse. Attualmente viene venduto al prezzo più basso di € 0,42.
Questo Boo Token sarebbe perfetto per un mazzo rosso-verde aggressivo focalizzato sul danneggiare velocemente con creature. Le sue abilità di travolgere e fretta lo rendono una minaccia forte che può infliggere rapidamente danni al tuo avversario. Anche se ci potrebbero essere altre creature leggendarie con abilità più potenti, il costo basso e l'impatto immediato di Boo Token lo rendono una scelta solida per i mazzi che cercano di esercitare pressione fin dall'inizio. Dovrebbe assolutamente essere giocato nei mazzi che puntano a vittorie rapide e alta aggressività con creature.
Dove comprare
![]() | Card Kingdom | 74 uni.
| € 0,42 | visita il negozio |
![]() | TCG Player | 16 uni.
| € 2,44 | visita il negozio |
![]() | Ebay.com | visita il negozio | ||
![]() | Cardkingdom | visita il negozio | ||
![]() | Printing proxies | $ 0.75 | visita il negozio |
*Questo sito contiene link di affiliazione per i quali potremmo ricevere un compenso
Gruppo
avviso di prezzo ?
Avvisami quando arriva il prezzo
Storico dell'andamento dei prezzi

Storico dei prezzi
| Data | Prezzo minimo | Prezzo medio | Decks |
|---|---|---|---|
| 2024-09-06 | 0.67 EUR | 1.63 EUR | 0 |
| 2024-09-09 | 0.67 EUR | 1.25 EUR | 0 |
| 2024-09-16 | 0.67 EUR | 1.33 EUR | 0 |
| 2024-09-23 | 0.68 EUR | 1.66 EUR | 0 |
| 2024-09-30 | 0.70 EUR | 1.50 EUR | 0 |
| 2024-10-07 | 0.74 EUR | 1.68 EUR | 0 |
| 2024-10-14 | 0.79 EUR | 1.61 EUR | 0 |
| 2024-10-21 | 0.80 EUR | 1.31 EUR | 0 |
| 2024-10-28 | 0.71 EUR | 1.30 EUR | 0 |
| 2024-11-06 | 0.67 EUR | 1.33 EUR | 0 |
| 2024-11-11 | 0.68 EUR | 1.58 EUR | 0 |
| 2024-11-18 | 0.70 EUR | 1.81 EUR | 0 |
| 2024-11-25 | 0.70 EUR | 1.78 EUR | 0 |
| 2024-12-02 | 0.73 EUR | 1.41 EUR | 0 |
| 2024-12-09 | 0.72 EUR | 1.35 EUR | 0 |
| 2024-12-19 | 0.72 EUR | 1.35 EUR | 0 |
| 2024-12-23 | 0.72 EUR | 1.35 EUR | 0 |
| 2024-12-30 | 0.72 EUR | 1.35 EUR | 0 |
| 2025-01-01 | 0.72 EUR | 1.35 EUR | 0 |
| 2025-01-06 | 0.72 EUR | 1.35 EUR | 0 |
| 2025-01-13 | 0.72 EUR | 1.35 EUR | 0 |
| 2025-01-20 | 0.72 EUR | 1.35 EUR | 0 |
| 2025-01-27 | 0.72 EUR | 1.35 EUR | 0 |
| 2025-02-03 | 0.72 EUR | 1.35 EUR | 0 |
| 2025-02-10 | 0.72 EUR | 1.35 EUR | 0 |
| 2025-02-18 | 0.63 EUR | 1.52 EUR | 0 |
| 2025-04-27 | 0.53 EUR | 1.34 EUR | 0 |
| 2025-04-28 | 0.51 EUR | 1.25 EUR | 0 |
| 2025-05-06 | 0.50 EUR | 1.13 EUR | 0 |
| 2025-05-12 | 0.49 EUR | 1.06 EUR | 0 |
| 2025-05-19 | 0.49 EUR | 1.05 EUR | 0 |
| 2025-05-28 | 0.48 EUR | 1.00 EUR | 0 |
| 2025-06-03 | 0.47 EUR | 1.01 EUR | 0 |
| 2025-06-10 | 0.45 EUR | 1.05 EUR | 0 |
| 2025-06-17 | 0.46 EUR | 1.00 EUR | 0 |
| 2025-06-23 | 0.47 EUR | 1.06 EUR | 0 |
| 2025-07-01 | 0.47 EUR | 0.84 EUR | 0 |
| 2025-07-08 | 0.47 EUR | 1.03 EUR | 0 |
| 2025-07-15 | 0.48 EUR | 0.86 EUR | 0 |
| 2025-07-22 | 0.48 EUR | 1.04 EUR | 0 |
| 2025-07-29 | 0.48 EUR | 0.93 EUR | 0 |
| 2025-08-05 | 0.48 EUR | 1.10 EUR | 0 |
| 2025-08-12 | 0.55 EUR | 1.08 EUR | 0 |
| 2025-08-18 | 0.58 EUR | 0.91 EUR | 0 |
| 2025-08-25 | 0.63 EUR | 1.04 EUR | 0 |
| 2025-09-02 | 0.57 EUR | 1.09 EUR | 0 |
| 2025-09-09 | 0.57 EUR | 1.09 EUR | 0 |
| 2025-09-15 | 0.57 EUR | 1.09 EUR | 0 |
| 2025-09-23 | 0.57 EUR | 1.09 EUR | 0 |
| 2025-09-29 | 0.57 EUR | 1.09 EUR | 0 |
| 2025-10-06 | 0.57 EUR | 1.09 EUR | 0 |
| 2025-10-13 | 0.89 EUR | 2.13 EUR | 0 |
| 2025-10-20 | 0.89 EUR | 2.15 EUR | 0 |
| 2025-10-27 | 1.02 EUR | 2.26 EUR | 0 |
| 2025-11-03 | 1.35 EUR | 2.18 EUR | 0 |
| 2025-11-10 | 1.34 EUR | 2.06 EUR | 0 |
| 2025-11-18 | 1.34 EUR | 1.87 EUR | 0 |
| 2025-11-24 | 1.35 EUR | 1.73 EUR | 0 |
| 2025-12-03 | 1.35 EUR | 1.61 EUR | 0 |
| 2025-12-08 | 1.47 EUR | 1.62 EUR | 0 |
| 2025-12-15 | 1.51 EUR | 1.64 EUR | 0 |
| 2025-12-22 | 1.42 EUR | 1.66 EUR | 0 |
| 2025-12-29 | 1.86 EUR | 1.86 EUR | 0 |
| 2026-01-01 | 1.85 EUR | 1.85 EUR | 0 |
| 2026-01-05 | 1.83 EUR | 1.83 EUR | 0 |
| 2026-01-13 | 1.81 EUR | 1.81 EUR | 0 |
| 2026-01-20 | 1.80 EUR | 1.80 EUR | 0 |
| 2026-01-26 | 1.68 EUR | 1.68 EUR | 0 |
| 2026-02-02 | 1.74 EUR | 1.74 EUR | 0 |
| 2026-02-09 | 1.74 EUR | 1.74 EUR | 0 |
| 2026-02-16 | 1.74 EUR | 1.74 EUR | 0 |
| 2026-02-23 | 1.74 EUR | 1.74 EUR | 0 |
| 2026-03-02 | 1.74 EUR | 1.74 EUR | 0 |
| 2026-03-10 | 2.40 EUR | 2.47 EUR | 0 |
| 2026-03-16 | 2.39 EUR | 2.49 EUR | 0 |
| 2026-04-02 | 2.24 EUR | 2.47 EUR | 0 |
| 2026-04-07 | 1.75 EUR | 2.42 EUR | 0 |
| 2026-04-14 | 1.73 EUR | 2.45 EUR | 0 |
| 2026-04-23 | 1.67 EUR | 2.92 EUR | 0 |
| 2026-04-30 | 1.39 EUR | 2.92 EUR | 0 |
| 2026-05-05 | 1.25 EUR | 3.32 EUR | 0 |
| 2026-05-14 | 1.24 EUR | 3.70 EUR | 0 |
| 2026-05-20 | 0.83 EUR | 3.82 EUR | 0 |
| 2026-05-25 | 0.84 EUR | 3.82 EUR | 0 |
| 2026-06-01 | 0.84 EUR | 3.81 EUR | 0 |
| 2026-06-08 | 0.84 EUR | 3.04 EUR | 0 |
| 2026-06-15 | 0.84 EUR | 3.04 EUR | 0 |
| 2026-06-23 | 0.84 EUR | 3.04 EUR | 0 |
| 2026-06-29 | 0.84 EUR | 3.04 EUR | 0 |
| 2026-07-06 | 0.96 EUR | 2.96 EUR | 0 |
| 2026-07-13 | 0.42 EUR | 2.87 EUR | 0 |
| 2026-07-20 | 0.42 EUR | 2.80 EUR | 0 |
| 2026-07-27 | 0.68 EUR | 2.74 EUR | 0 |
| 2026-08-03 | 0.68 EUR | 2.70 EUR | 0 |
| 2026-08-10 | 0.65 EUR | 2.54 EUR | 0 |
| 2026-08-17 | 0.43 EUR | 2.61 EUR | 0 |
| 2026-08-24 | 0.43 EUR | 2.53 EUR | 0 |
| 2026-09-01 | 0.43 EUR | 2.53 EUR | 0 |
Domande frequenti su Boo Token
Che tipo di carta è Boo Token?
Boo Token è Creatura leggendaria pedina — criceto carta inserita Magic: the Gathering MTG.
Qual è l'effetto della carta Boo Token?
Trampolino, rapidità
Qual è il prezzo della carta Boo Token?
Boo Token attualmente inizia alle € 0,42. Visualizza i prezzi in tempo reale di più venditori nella sezione Dove acquistare sopra.
Qual è il set originale della carta Boo Token?
Boo Token è stato rilasciato per la prima volta nel set Adventures in the Forgotten Realms Tokens, illustrato da Zoltan Boros.
Qual è la legalità della carta Boo Token?
La legalità dipende dal formato del torneo: Boo Token può essere legale in alcuni formati e vietato o limitato in altri. Consulta la ripartizione completa per formato nella sezione Legalità sopra.
Quali carte sono simili a Boo Token?
Carte simili a Boo Token includere Token Cavaliere Umano, Token Guerriero Umano, Token Wurm // Token Saproling. Consulta l'elenco completo nella sezione Carte simili sopra.






Reazioni
0
0 Commenti
Diventa il primo a commentare